www.pogodaiklimat.ru

Погода и климат >> Архив погоды >> Россия >> Дагестан >> Буйнакск


АРХИВ ПОГОДЫ в Буйнакске

Время (UTC), дата Ветер
(напр.,м/с)
 
Видим.   Явления Облачность Т
(С)
Тd
(С)
f
(%)
Тe
(С)
Тes
(С)
Комфортность P
(гПа)
Po
(гПа)
Тmin
(С)
Tmax
(С)
R
(мм)
R24
(мм)
S
(см)
06 9.01 ЮЗ 1 50 км 10/10 1000 м
[Sc]
0.0 -1.8 88 -2 -2 1006.8 949.4
09 9.01 ЮВ 1 10 км 10/10 600 м
[Sc]
+1.7 +0.1 89 -0 -0 1006.4 949.4
12 9.01 СЗ 2 2000 м дымка 10/10 600 м
[Sc]
+1.3 +0.3 93 -2 -2 1009.9 952.6
15 9.01 штиль 0 10 км 10/10 600 м
[Sc]
+0.6 -2.2 81 -0 -0 1012.9 955.3 +2.5
18 9.01 штиль 0 10 км слаб. ливневой снег 10/10 600 м
[Cb cap]
+1.3 -0.7 87 0 0 1015.8 958.1
21 9.01 Ю 1 10 км {ливн. осадки} 10/0
[Ac As]
+1.3 -3.1 72 -0 -0 1017.3 959.6
00 10.01 штиль 0 10 км {ливн. осадки} 10/0
[Ac As]
+0.8 -4.2 69 0 0 1020.2 962.2
03 10.01 В 1 10 км 3/0
[Ac trans]
-0.8 -5.7 69 -3 -3 1023.3 964.8 -0.8 0.0
06 10.01 В 1 50 км ясно -0.7 -5.4 70 -2 -1 1025.7 967.1 -3.0
09 10.01 СВ 1 50 км ясно +2.9 -4.3 59 +2 +7 1024.4 966.6
12 10.01 СВ 1 50 км ясно +1.3 -4.3 66 -0 +1 1025.6 967.4
15 10.01 ЮВ 1 10 км ясно -1.7 -4.4 82 -4 -4 1026.8 967.9 +3.6
18 10.01 Ю 1 4000 м дымка 10/10 600 м
[Sc]
-3.9 -4.6 95 -6 -6 1026.5 967.1
21 10.01 Ю 2 1000 м дымка 9/9 300 м
[Sc]
-5.1 -5.8 95 -10 -10 1025.4 965.9
00 11.01 ЮВ 3 4000 м дымка 4/4 600 м
[Sc]
-5.1 -5.8 95 -11 -11 1024.2 964.7
03 11.01 ЮВ 1 10 км ясно -5.6 -6.4 94 -8 -8 1023.2 963.7 -6.5
06 11.01 ЮВ 1 50 км 10/0
[Ci fib]
-1.8 -4.8 80 -4 -2 1022.7 964.0
09 11.01 ЮВ 2 50 км 9/0
[Ci fib]
+3.6 -2.5 64 +1 +5 1020.2 962.8
12 11.01 ЮВ 3 50 км 10/0
[Ac trans Ci fib]
+4.1 -0.9 70 +1 +1 1018.8 961.6
15 11.01 ЮВ 3 10 км 10/0
[Ac As Ci fib]
+1.4 0.0 90 -3 -3 1018.7 961.0 +4.9
18 11.01 Ю 1 10 км 10/0
[Ac und]
-0.8 -2.1 91 -3 -3 1018.3 960.1
21 11.01 штиль 0 10 км 10/0
[Ac und]
-0.3 -3.2 81 -1 -1 1015.8 957.8
00 12.01 ЮЗ 1 10 км 10/0
[Ac und]
+0.4 -4.1 72 -1 -1 1013.8 956.1
03 12.01 штиль 0 10 км 8/0
[Ac As]
+1.6 -5.2 61 +1 +1 1011.1 953.8 -0.9
06 12.01 ЮЗ 1 50 км 8/0
[Ac As]
+3.0 -3.7 61 +2 +3 1011.0 954.0
09 12.01 СВ 1 50 км 5/0
[Ac As]
+10.7 -5.4 32 +11 +14 1007.6 952.2
12 12.01 СВ 1 50 км 3/0
[Ac As]
+5.6 -2.0 58 +5 +6 1009.8 953.4
15 12.01 С 1 10 км 1/0
[Ac trans]
+3.8 -1.4 69 +3 +3 1014.7 957.7 +11.9
18 12.01 З 1 10 км 10/0
[Ac und]
+4.8 -0.1 71 +4 +4 1014.4 957.6
21 12.01 штиль 0 10 км 3/0
[Ac As]
+1.6 -0.8 84 +1 +1 1014.2 956.8
00 13.01 ЮЗ 1 10 км ясно 0.0 -1.7 88 -2 -2 1012.6 954.9
03 13.01 ЮЗ 2 10 км ясно -0.2 -2.4 85 -4 -4 1009.8 952.2 -0.2
06 13.01 Ю 3 4000 м дымка 10/10 600 м
[Sc]
+0.8 -0.1 94 -4 -4 1008.5 951.2 -0.3
09 13.01 ЮВ 2 2000 м дымка 10/10 600 м
[Sc]
+2.6 +0.7 87 -1 -1 1005.2 948.5
12 13.01 С 2 4000 м дымка 10/10 600 м
[Sc]
+3.6 +1.1 84 +1 +1 1006.0 949.4
15 13.01 СЗ 1 10 км 10/10 600 м
[Sc]
+1.9 -0.1 87 0 0 1008.3 951.2 +4.2
18 13.01 СВ 1 10 км 10/10 600 м
[Sc]
+0.7 -0.6 91 -1 -1 1009.9 952.5
21 13.01 ЮВ 1 10 км {морось} 10/10 300 м
[St]
+0.2 -0.6 94 -2 -2 1009.9 952.4
00 14.01 штиль 0 10 км {морось} 10/10 600 м
[Sc]
+0.6 -1.2 88 -1 -1 1009.8 952.4
03 14.01 штиль 0 10 км 10/10 600 м
[Sc]
-0.6 -1.5 94 -2 -2 1010.4 952.7 -0.6 0.0
06 14.01 ЮВ 2 4000 м дымка 10/10 600 м
[Sc]
-0.0 -1.2 92 -4 -4 1010.8 953.2
09 14.01 ЮВ 2 2000 м дымка 10/10 600 м
[Sc]
+1.1 -1.4 83 -2 -2 1009.0 951.8
12 14.01 ЮВ 2 2000 м дымка 9/9 600 м
[Sc]
+2.7 -0.8 78 -0 -0 1008.4 951.5
15 14.01 ЮВ 2 10 км 10/10 600 м
[Sc]
+0.2 -0.8 93 -4 -4 1009.9 952.7 +2.7
18 14.01 Ю 2 10 км 10/10 600 м
[Sc]
-0.0 -1.3 91 -4 -4 1009.9 952.4
21 14.01 Ю 3 10 км 6/6 600 м
[Sc]
-0.9 -2.0 92 -6 -6 1008.9 951.2
00 15.01 ЮВ 1 10 км ясно -2.2 -3.6 90 -4 -4 1008.7 950.7
03 15.01 ЮВ 1 10 км ясно -0.7 -3.9 79 -3 -3 1008.9 951.2 -2.2
06 15.01 Ю 1 50 км 5/0
[Ac As]
+1.9 -3.5 67 +1 +2 1008.6 951.5
09 15.01 ЮВ 4 50 км 8/0
[Ac As]
+6.0 -0.3 64 +3 +4 1007.3 951.1
12 15.01 ЮВ 4 50 км 3/0
[Ac As]
+7.2 +1.9 69 +4 +5 1006.7 950.7
15 15.01 ЮВ 2 10 км 5/0
[Ac As]
+2.7 +1.0 89 -1 -1 1008.1 951.2 +7.2
18 15.01 Ю 1 10 км 5/0
[Ac As]
+4.1 -1.0 69 +3 +3 1005.7 949.2
21 15.01 ЮЗ 2 10 км 8/0
[Ac As]
+11.2 -4.6 33 +11 +11 1001.0 946.1
00 16.01 З 2 10 км ясно +15.4 -6.6 21 +16 +16 998.8 944.8

 

Местоположение метеостанции Буйнакск (Дагестан, Россия): широта 42.82 долгота 47.12 высота над уровнем моря 466 м.

В архиве по умолчанию представлена погода в Буйнакске за последнюю неделю. Архивные данные за месяц целиком и за предыдущие месяцы, начиная с января 2011 года, Вы можете получить, выбрав интересующий диапазон дат из раскрывающегося списка и нажав кнопку "Ввод!".


*Определитесь, кто Вы:
робот инопланетянин человек

Внимание! Время в таблицах - всемирное. Для получения местного времени необходимо прибавить поправку, которая равна 3 ч.

Смотрите также архив погоды в соседних городах и на ближайших метеорологических станциях:

Погода в Махачкале (Дагестан, Россия) (37 км)
Погода в Куппе (Дагестан, Россия) (43 км)
Погода в Хунзахе (Дагестан, Россия) (44 км)
Погода в Гунибе (Дагестан, Россия) (48 км)
Погода в Сергокале (Дагестан, Россия) (61 км)
Погода в Хасавюрте (Дагестан, Россия) (65 км)
Погода в Изберге (Дагестан, Россия) (73 км)
Погода в Кумухе (Дагестан, Россия) (78 км)
Погода в Сулаке (высокогорная) (Дагестан, Россия) (87 км)
Погода в Бабаюрте (Дагестан, Россия) (91 км)

Пояснения к столбцам:

Ветер - указаны скорость ветра в м/с - средняя за 10 мин, порывы в срок и между сроками (в фигурных скобках) и направление, откуда дует ветер: С - северный, СВ - северо-восточный, В - восточный, ЮВ - юго-восточный, Ю - южный, ЮЗ - юго-западный, З - западный, СЗ - северо-западный.
Видимость - горизонтальная дальность видимости в метрах или километрах. При видимости от 1 до 10 км при отсутствии осадков обычно наблюдается дымка, при ухудшении видимости до 1 км и менее - туман. В сухую погоду видимость может ухудшаться дымом, пылью или мглою.
Явления - указаны атмосферные явления, наблюдавшиеся в срок или в последний час перед сроком; фигурными скобками обозначены явления, наблюдавшиеся между сроками (за 1-3 часа до срока); квадратными скобками обозначены град или гололедные отложения с указанием их диаметра в мм.
Облачность - указаны через наклонную черту общая и нижняя облачность в баллах и высота нижней границы облаков в метрах; квадратными скобками обозначены формы облаков: Ci - перистые, Cs - перисто-слоистые, Cc - перисто-кучевые, Ac - высококучевые, As - высокослоистые, Sc - слоисто-кучевые, Ns - слоисто-дождевые, Cu - кучевые, Cb - кучево-дождевые. Подробнее классификацию облаков см. в Атласе облаков (PDF).
T - Температура воздуха - температура, измеренная на высоте 2 м над землей.
Td - Температура точки росы - температура, при понижении до которой содержащийся в воздухе водяной пар достигнет насыщения.
f - Относительная влажность воздуха - влажноcть воздуха, измеренная на высоте 2 м над землей.
Te - Эффективная температура - температура, которую ощущает одетый по сезону человек в тени. Характеристика душности погоды. При расчете учитывается влияние влажности воздуха и скорости ветра на теплоощущения человека.
Tes - Эффективная температура на солнце - температура, которую ощущает человек, с поправкой на солнечный нагрев. Характеристика знойности погоды. Зависит от высоты солнца над горизонтом, облачности и скорости ветра. Ночью, в пасмурную погоду, а также при ветре 12 м/с и более поправка равна нулю.
P - Атмосферное давление - приведенное к уровню моря атмосферное давление.
Po - Атмосферное давление - измеренное на уровне метеостанции атмосферное давление.
Tmin - Минимальная температура - минимум температуры воздуха на высоте 2 м над землей.
Tmax - Максимальная температура - максимум температуры воздуха на высоте 2 м над землей.
R - Количество осадков - Количество выпавших осадков за период времени, мм. При наведении курсора мыши на число - период времени, за который выпало указанное количество осадков.
R24 - Количество осадков - Количество выпавших осадков за 24 часа, мм.
S - Снежный покров - Высота снежного покрова, см. При наведении курсора мыши на число - состояние снежного покрова и степень покрытия местности в баллах.